Location: Stagno Marceddi
(39.7122°N, 8.5133°E)
Time: 23:23:27
(UTC+00:00)

Daily predictions for brighter satellites

Satellite Brightness Start Highest point End
(mag) Time Altitude Azimuth Time Altitude Azimuth Time Altitude Azimuth
Cosmos 1606 Rocket 3.8 16:54:27 10° N 16:58:42 46° E 17:02:56 10° SSE
DELTA 2 R/B (1) 4.3 16:53:21 10° W 16:58:48 56° SSW 17:04:12 10° SE
FengYun 1-2 T 4.2 16:53:50 10° SSE 16:59:19 67° ENE 17:04:53 10° N
ATLAS 5 CENTAUR R/B 2.6 16:55:50 10° WSW 16:59:33 38° NW 17:03:40 10° NNE
H-2A R/B 2.2 16:55:53 10° NNE 17:00:21 85° WNW 17:04:41 10° SSW
NOAA 12 4.2 16:56:03 10° SSE 17:01:16 84° WSW 17:06:32 10° NNW
SL-14 R/B 3.6 16:59:00 10° SSW 17:02:49 70° W 17:06:44 10° N
CZ-4C R/B 4.5 17:01:11 10° N 17:04:04 34° WNW 17:06:58 10° SW
RESURS DK-1 4.4 17:01:16 10° WSW 17:04:47 26° WNW 17:08:18 10° N
Abrixas rocket 4.0 17:03:43 10° W 17:06:02 27° SW 17:08:19 10° SSE
MOS 1 Rocket 3.9 17:05:55 10° NNE 17:09:44 30° E 17:13:32 10° SSE
ATLAS 3B R/B 3.2 17:03:29 10° NW 17:10:28 71° WSW 17:17:44 10° SSE
Cosmos 2228 2.9 17:06:25 10° N 17:10:41 72° E 17:14:57 10° SSE
BREEZE-M DEB (TANK) 2.5 17:08:10 10° WNW 17:11:00 58° SSW 17:14:40 10° SE
Meteor 2-5 Rocket 4.1 17:06:03 10° SSW 17:11:37 71° W 17:17:09 10° N
Cosmos 2142 Rocket 4.4 17:06:46 10° N 17:12:56 75° E 17:19:02 10° SSE
CZ-4C R/B 4.2 17:09:56 10° WNW 17:13:37 19° NNW 17:17:44 10° N
SJ 16-02 2.3 17:10:56 10° SSE 17:14:38 27° E 17:18:20 10° NE
SKYMED 2 3.8 17:11:30 10° NNE 17:15:44 50° E 17:19:56 10° S
Nadezhda 4 Rocket 4.5 17:10:13 10° SSE 17:15:55 38° E 17:21:34 10° NNE
Cosmos 1538 Rocket 4.4 17:12:20 10° N 17:17:09 38° ENE 17:21:55 10° SE
Cosmos 1777 Rocket 4.0 17:12:33 10° SSW 17:17:48 81° ESE 17:23:06 10° NNE
CZ-3B R/B 3.8 17:16:28 10° N 17:18:17 14° NE 17:20:10 12° ENE
Cosmos 2263 Rocket 3.5 17:14:35 10° SW 17:19:54 41° WNW 17:25:15 10° N
Cosmos 1455 3.3 17:25:00 10° NNE 17:28:05 23° ENE 17:31:10 10° SE
Cosmos 2058 Rocket 3.3 17:25:47 10° N 17:30:10 49° E 17:34:32 10° SSE
X-37B 0.6 17:28:05 10° SW 17:31:15 69° SSE 17:33:14 21° ENE
Cosmos 1300 3.7 17:28:37 10° NNW 17:32:19 49° W 17:36:00 10° S
ARGOS 4.1 17:31:26 10° ESE 17:35:42 25° ENE 17:39:59 10° NNE
Cosmos 44 4.4 17:34:40 10° SSE 17:38:26 24° ESE 17:40:17 19° ENE
Okean 1-7 Rocket 3.6 17:34:21 10° S 17:38:49 66° E 17:43:21 10° NNE
Lacrosse 5 2.7 17:38:14 10° NNW 17:42:42 30° NE 17:45:00 21° ENE
Cosmos 1939 Rocket 3.3 17:38:38 10° S 17:42:44 67° W 17:46:50 10° NNW
ISS -3.7 17:39:47 10° SW 17:43:09 77° NW 17:45:00 24° NE
Cosmos 1943 4.4 17:39:48 10° NW 17:45:12 46° WSW 17:50:33 10° S
Cosmos 1726 Rocket 4.0 17:41:20 10° NNW 17:45:40 65° W 17:50:00 10° S
ERS-2 2.0 17:42:41 10° NNE 17:46:20 70° ESE 17:49:55 10° S
COSMOS 2455 3.2 17:41:16 10° SW 17:47:15 68° WNW 17:53:17 10° NNE
EXPRESS MD2 4.2 17:40:26 10° NW 17:48:04 53° NNE 17:50:21 25° E
CZ-2C R/B 3.7 17:45:49 19° ENE 17:48:14 25° E 17:52:47 10° SSE
PSLV R/B 4.0 17:44:34 10° NNE 17:48:45 59° ESE 17:52:54 10° S
Cosmos 1626 Rocket 3.8 17:45:58 10° SSE 17:50:06 43° E 17:54:01 11° NNE
Cosmos 1844 3.7 17:46:34 10° S 17:52:06 63° ESE 17:57:10 13° NNE
Cosmos 2026 Rocket 4.5 17:47:41 10° SSE 17:53:02 34° E 17:58:28 10° NNE
IRS-1C Rocket 4.0 17:48:13 10° SSE 17:53:27 81° ENE 17:58:44 10° NNW
CZ-4 R/B 1.4 17:50:58 10° SSE 17:55:03 61° ENE 17:59:03 10° N
Feng Yun 1-1 Rocket 4.5 17:50:47 10° S 17:56:10 72° WSW 18:01:40 10° NNW
NOSS 2-1 (C) 3.8 17:57:33 10° S 18:00:29 31° SE 18:00:29 31° SE
COSMO-SKYMED 1 3.6 17:59:38 10° N 18:03:48 45° WNW 18:07:56 10° SW
NOSS 2-1 (D) 3.6 18:03:18 10° S 18:06:13 36° SE 18:06:13 36° SE
DMSP B5D1-3 4.5 18:02:01 10° NNE 18:07:05 62° ESE 18:12:06 10° S
Hubble Space Telescope 2.9 18:04:35 10° SSW 18:07:10 16° S 18:08:45 13° SSE
USA 267 3.6 18:04:12 26° ENE 18:07:29 45° SE 18:13:41 10° SSW
Okean-O 2.5 18:06:42 10° SSE 18:11:08 83° ENE 18:15:35 10° N
CZ-2C R/B 3.6 18:07:25 10° S 18:12:34 64° W 18:18:03 10° NNW
CZ-4B R/B 4.0 18:11:12 10° NNW 18:13:46 21° WNW 18:16:18 10° WSW
Cosmos 1844 Rocket 2.9 18:08:30 10° SSW 18:14:08 69° WNW 18:19:24 12° NNE
H-2A R/B 1.8 18:10:07 10° SSE 18:15:02 79° ENE 18:20:07 10° N
Meteor 1-21 Rocket 4.1 18:11:02 10° S 18:16:34 87° W 18:22:08 10° N
Aureole 2 Rocket 4.2 18:15:06 10° SW 18:17:40 26° WNW 18:19:29 15° NNW
Cosmos 2195 Rocket 4.4 18:12:16 10° S 18:18:30 67° E 18:24:48 10° NNE
Cosmos 923 Rocket 4.0 18:13:39 10° NNW 18:18:56 60° ENE 18:23:16 15° SSE
Cosmos 1689 Rocket 3.1 18:20:01 35° NW 18:20:40 42° WNW 18:23:23 10° SSW
Cosmos 1898 Rocket 3.5 18:17:13 10° S 18:22:23 57° ESE 18:23:41 44° NE
Cosmos 2278 Rocket 3.9 18:18:46 10° SSE 18:20:26 17° SE 18:20:26 17° SE
Cosmos 158 Rocket 3.9 18:19:00 10° NNW 18:24:21 75° ENE 18:29:44 10° SSE
Meteor 2-8 Rocket 4.4 18:18:53 10° N 18:24:53 57° E 18:30:52 10° SSE
Cosmos 1680 Rocket 3.5 18:21:11 10° N 18:26:19 52° ENE 18:26:36 51° E
Cosmos 1627 Rocket 4.3 18:22:17 10° S 18:28:23 71° E 18:34:35 10° NNE
Cosmos 2098 Rocket 4.3 18:22:52 10° SSE 18:29:35 58° E 18:36:51 10° NNE
Cosmos 1602 Rocket 3.4 18:25:48 10° S 18:30:07 89° W 18:31:34 42° N
Cosmos 1818 4.4 18:26:13 10° SW 18:31:26 47° NW 18:34:52 21° NNE
YAOGAN 1 3.1 18:28:53 10° S 18:33:07 57° W 18:37:23 10° NNW
Cosmos 1428 Rocket 4.4 18:27:09 10° S 18:33:22 72° E 18:39:40 10° NNE
CSL-04 Rocket 3.5 18:31:28 10° SSE 18:36:50 82° ENE 18:42:19 10° NNW
Helios 1A Rocket 3.3 18:33:57 10° S 18:38:02 63° WSW 18:42:09 10° NNW
USA 234 4.2 18:40:20 28° NNE 18:40:44 28° NNE 18:46:07 10° NNW
Cosmos 1092 Rocket 4.2 18:37:20 10° SSW 18:43:32 71° W 18:49:42 10° N
Iridium 4 Rocket 3.6 18:43:05 10° N 18:48:45 80° W 18:53:55 10° S
SJ 16-02 3.4 18:49:28 10° WSW 18:53:08 25° WNW 18:55:59 14° NNW
Cosmos 2344 4.5 18:46:54 10° NNW 18:56:16 55° NE 18:59:35 45° E
Cosmos 1937 Rocket 3.7 18:52:18 10° SSW 18:56:45 64° S 18:56:45 64° S
X-37B 3.9 19:05:04 10° WNW 19:05:31 13° WNW 19:05:31 13° WNW
ARGOS 4.3 19:10:41 10° SSW 19:15:42 41° W 19:20:46 10° NNW
Lacrosse 5 3.2 19:20:59 10° NW 19:24:16 36° WNW 19:24:16 36° WNW
CZ-2C R/B 3.8 19:27:19 37° NW 19:28:37 43° WNW 19:33:52 10° SW
NOSS 3-1 (C) 4.0 19:27:25 10° NNW 19:34:39 80° NNW 19:34:39 80° NNW
USA 267 3.9 19:51:34 49° WNW 19:51:34 49° WNW 19:56:50 10° WSW
